Gadsden, AL

1:21 AM CDT on July 21, 2019 (GMT -0500)
Gadsden Municipal

Weather History for KGAD - May, 2019

Change the Weather History Date:

Thursday, May 16, 2019

  Actual Average Record
Temperature  
Mean Temperature 70 °F -  
Max Temperature 88 °F 78 °F 92 °F (1944)
Min Temperature 55 °F 54 °F 41 °F (2014)
Cooling Degree Days 6    
Growing Degree Days 20 (Base 50)    
Moisture  
Dew Point 66 °F    
Average Humidity 83    
Maximum Humidity 100    
Minimum Humidity 51    
Precipitation  
Precipitation 0.00 in - - ()
Sea Level Pressure  
Sea Level Pressure 30.01 in    
Wind  
Wind Speed 2 mph ()    
Max Wind Speed 15 mph    
Max Gust Speed 22 mph    
Visibility 9.5 miles    
Events Rain , Thunderstorm    
Averages and records for this station are not official NWS values.
T = Trace of Precipitation, MM = Missing Value Source: Averaged Metar Reports

Daily Weather History Graph

Daily Weather History Graph

Search for Another Location

Airport or City:

Astronomy

May. 16, 2019 Rise Set
Actual Time 5:42 AM CDT 7:39 PM CDT
Civil Twilight 5:14 AM CDT 8:07 PM CDT
Nautical Twilight 4:41 AM CDT 8:40 PM CDT
Astronomical Twilight 4:05 AM CDT 9:16 PM CDT
Moon 5:27 PM CDT (5/16) 4:29 AM CDT (5/16)
Length of Visible Light 14h 52m
Length of Day
13h 57m
Waxing Gibbous, 94% of the Moon is Illuminated
May 16
Waxing Gibbous
May 18
Full
May 26
Last Quarter
Jun 3
New
Jun 10
First Quarter

Hourly Weather History & Observations

Time (CDT) Temp. Heat Index Dew Point Humidity Pressure Visibility Wind Dir Wind Speed Gust Speed Precip Events Conditions
12:56 AM 63.0 °F - 63.0 °F 100% 30.04 in 10.0 mi ENE 3.5 mph - 0.00 in   Mostly Cloudy
1:56 AM 61.0 °F - 61.0 °F 100% 30.02 in 10.0 mi Calm Calm - N/A   Partly Cloudy
2:56 AM 60.1 °F - 60.1 °F 100% 30.03 in 10.0 mi Calm Calm - N/A   Mostly Cloudy
3:56 AM 57.9 °F - - N/A% 30.03 in 10.0 mi Calm Calm - N/A   Mostly Cloudy
4:44 AM 57.2 °F - - N/A% 30.03 in 1.8 mi Calm Calm - N/A   Clear
4:56 AM 57.0 °F - - N/A% 30.04 in 5.0 mi Calm Calm - N/A   Haze
5:56 AM 55.9 °F - - N/A% 30.05 in 10.0 mi Calm Calm - N/A   Partly Cloudy
6:56 AM 59.0 °F - - N/A% 30.06 in 10.0 mi Calm Calm - N/A   Clear
7:56 AM 64.9 °F - 64.0 °F 97% 30.07 in 10.0 mi Calm Calm - N/A   Clear
8:56 AM 70.0 °F - 66.0 °F 87% 30.06 in 10.0 mi South 3.5 mph - N/A   Clear
9:56 AM 75.0 °F - 69.1 °F 82% 30.06 in 10.0 mi West 3.5 mph - N/A   Clear
10:56 AM 78.1 °F - 69.1 °F 74% 30.06 in 10.0 mi West 4.6 mph - N/A   Clear
11:56 AM 82.0 °F 84.9 °F 68.0 °F 62% 30.03 in 10.0 mi Variable 3.5 mph - N/A   Clear
12:56 PM 84.0 °F 87.8 °F 69.1 °F 61% 30.00 in 10.0 mi SSW 5.8 mph - N/A   Partly Cloudy
1:56 PM 82.9 °F 86.5 °F 69.1 °F 63% 29.99 in 10.0 mi Variable 3.5 mph - N/A   Mostly Cloudy
2:56 PM 86.0 °F 88.2 °F 66.0 °F 51% 29.98 in 10.0 mi West 9.2 mph - N/A   Scattered Clouds
3:56 PM 84.0 °F 86.5 °F 66.9 °F 56% 29.97 in 10.0 mi WSW 8.1 mph - N/A   Scattered Clouds
4:22 PM 82.4 °F 85.4 °F 68.0 °F 62% 29.97 in 10.0 mi WSW 4.6 mph - N/A Thunderstorm Scattered Clouds
4:49 PM 77.0 °F - 66.2 °F 69% 29.97 in 10.0 mi SW 8.1 mph 21.9 mph N/A   Scattered Clouds
4:56 PM 77.0 °F - 66.9 °F 71% 29.97 in 10.0 mi WSW 15.0 mph - N/A   Scattered Clouds
5:56 PM 72.0 °F - 66.0 °F 81% 29.96 in 10.0 mi WSW 6.9 mph - 0.00 in   Clear
6:56 PM 70.0 °F - 66.0 °F 87% 29.97 in 10.0 mi WSW 3.5 mph - N/A   Clear
7:56 PM 66.9 °F - 66.9 °F 100% 29.97 in 10.0 mi Calm Calm - N/A   Clear
8:56 PM 66.0 °F - 66.0 °F 100% 29.99 in 10.0 mi Calm Calm - N/A   Clear
9:56 PM 64.0 °F - 64.0 °F 100% 30.01 in 10.0 mi Calm Calm - N/A   Clear
10:07 PM 64.4 °F - 64.4 °F 100% 30.00 in 10.0 mi NNW 3.5 mph - N/A Thunderstorm Clear
10:22 PM 64.4 °F - 64.4 °F 100% 30.01 in 10.0 mi WNW 3.5 mph - N/A   Scattered Clouds
10:56 PM 64.0 °F - 64.0 °F 100% 30.01 in 10.0 mi SW 4.6 mph - N/A   Partly Cloudy
11:56 PM 64.9 °F - 64.9 °F 100% 29.99 in 10.0 mi NW 3.5 mph - 0.00 in Rain Light Rain